Tracking 30918 objects as of 2-Jul-2025
HD Live streaming from Space Station
objects crossing your sky now

CUTE-LASP

Track CUTE-LASP now!
10-day predictions
CUTE-LASP is classified as:


NORAD ID: 49263
Int'l Code: 2021-088D
Perigee: 424.5 km
Apogee: 436.8 km
Inclination: 97.5 °
Period: 93.0 minutes
Semi major axis: 6801 km
RCS: Unknown
Launch date: September 27, 2021
Source: United States (US)
Launch site: AIR FORCE WESTERN TEST RANGE (AFWTR)

Uplink (MHz):
Downlink (MHz): 437.250/2402.000
Beacon (MHz):
Mode: 9k6*/19k2GMSK 1MbpsBPSK
Call sign: CUTE
Status: Active

Your satellite tracking list
COSMOS 1275 DEB
Track 1 satellite(s)




NASA's NSSDC Master Catalog

Two Line Element Set (TLE):
1 49263U 21088D   25182.73406953  .00016408  00000-0  31848-3 0  9994
2 49263  97.4500 259.6421 0009078 154.1152 206.0553 15.47688298207854
Source of the keplerian elements: AMSAT